sat.trackr.live / text

‹ back to catalog

KUIPER-00030

NORAD 63743 · 2025-088V

PAYLOAD ACTIVE UNKNOWN

§ Identity

Operator
Country
US
Launch date
2025-04-28
Launch site
AFETR
Launch vehicle
Mass (kg)
RCS (m²)

External: N2YO · Heavens-Above · Gunter

§ Orbital elements

Epoch: 2026-05-25T05:21:09.271008Z

Period
97.30 min
Inclination
51.9002°
Eccentricity
0.0000709
Mean motion
14.79926110 rev/d
Perigee alt
629.1 km
Apogee alt
630.1 km
Semi-major
7,007.7 km
B*
2.2349e-4
RAAN
132.1217°
Arg perigee
70.7140°
Mean anomaly
289.3899°
Rev number
5,896

§ Raw data

KUIPER-000301 63743U 25088V   26145.22302397  .00001483  00000+0  22349-3 0  99902 63743  51.9002 132.1217 0000709  70.7140 289.3899 14.79926110 58960

JSON: /api/v1/satellites/63743 · /tle

For live sub-satellite position, see the globe view (requires WebGL).

§ Visibility from observer

Set your observer location to see the next 7 days of passes ≥ 10°. The values pass through the URL so the page stays shareable.

No JS? Fill the form by hand. The geolocation button needs JavaScript.